GW4137 Weather Reports


time (UTC)temp
C
wind
direction
speed
KPH
gust
KPH
rain 1hr
cm
rain 24hr
cm
rain mn
cm
humidity
%
barometer
mb
20260904073052 10 346 4.8 6.4 0.00 0.08 0.00 74 1008.6
20260904071601 10 346 3.2 4.8 0.00 0.08 0.00 74 1008.9
20260904070059 10 0 0.0 0.0 0.00 0.08 0.00 73 1009.0
20260904064554 11 0 0.0 6.4 0.00 0.10 0.00 70 1009.0
20260904063056 12 346 4.8 8.0 0.00 0.10 0.00 69 1008.9
20260904061554 12 346 1.6 6.4 0.00 0.10 0.00 68 1009.1
20260904060054 12 0 0.0 6.4 0.00 0.10 0.00 66 1009.3
20260904054552 11 0 1.6 6.4 0.00 0.13 0.10 70 1009.4
20260904053101 11 346 0.0 0.0 0.00 0.13 0.10 68 1009.6
20260904051605 12 0 0.0 6.4 0.00 0.13 0.10 66 1009.9
20260904050106 12 0 0.0 0.0 0.00 0.13 0.10 63 1010.1
20260904044601 12 0 0.0 8.0 0.00 0.15 0.10 63 1010.1
20260904043055 12 0 0.0 6.4 0.00 0.15 0.10 65 1009.9
20260904041600 12 335 4.8 9.7 0.00 0.15 0.10 63 1009.6
20260904040104 11 335 4.8 8.0 0.00 0.15 0.10 68 1009.7
20260904034556 10 335 3.2 6.4 0.00 0.18 0.10 72 1009.7
20260904033055 11 335 3.2 6.4 0.00 0.18 0.10 70 1009.9
20260904031552 11 335 4.8 6.4 0.00 0.18 0.10 69 1009.7
20260904030059 12 335 1.6 4.8 0.00 0.18 0.10 65 1009.9
20260904024601 12 335 3.2 6.4 0.00 0.20 0.10 63 1009.6
20260904023101 12 335 3.2 6.4 0.00 0.20 0.10 66 1009.3
20260904021608 13 335 1.6 4.8 0.00 0.20 0.10 61 1009.1
20260904020105 15 335 3.2 4.8 0.00 0.20 0.10 55 1008.8
20260904014602 17 335 1.6 12.9 0.00 0.25 0.10 47 1008.8
20260904013059 18 329 4.8 14.5 0.00 0.25 0.10 42 1008.9
20260904011600 20 334 6.4 14.5 0.00 0.25 0.10 39 1008.9
20260904010055 21 322 8.0 16.1 0.00 0.25 0.10 37 1008.9
20260904004600 21 319 8.0 16.1 0.00 0.30 0.10 37 1008.9
20260904003054 21 311 8.0 19.3 0.00 0.30 0.10 35 1008.7
20260904001558 21 308 11.3 22.5 0.00 0.30 0.10 35 1008.7
20260904000120 22 307 16.1 25.7 0.00 0.30 0.10 34 1008.6
20260903234556 22 296 16.1 33.8 0.00 0.41 0.10 34 1008.2
20260903233056 22 294 16.1 32.2 0.00 0.41 0.10 34 1008.2
20260903231602 22 302 8.0 24.1 0.00 0.41 0.10 34 1008.2
20260903230058 22 263 16.1 25.7 0.00 0.41 0.10 34 1008.2
20260903224610 23 250 11.3 25.7 0.00 0.48 0.10 34 1008.2
20260903223100 23 255 16.1 29.0 0.00 0.48 0.10 33 1007.9
20260903221557 22 261 12.9 25.7 0.00 0.48 0.10 35 1007.6
20260903220053 22 266 16.1 25.7 0.00 0.48 0.10 34 1007.5
20260903214609 23 247 16.1 27.4 0.00 0.48 0.10 31 1007.4
20260903213107 24 281 16.1 32.2 0.00 0.48 0.10 32 1007.2
20260903211603 22 248 8.0 32.2 0.00 0.48 0.10 34 1007.2
20260903210122 23 238 14.5 29.0 0.00 0.48 0.10 30 1007.0
20260903204601 22 232 14.5 24.1 0.00 0.48 0.10 32 1007.2
20260903203109 23 263 11.3 25.7 0.00 0.48 0.10 33 1007.2
20260903201555 22 254 17.7 29.0 0.00 0.48 0.10 33 1007.4
20260903194603 22 215 19.3 27.4 0.00 0.48 0.10 34 1007.4
20260903193101 22 238 12.9 25.7 0.00 0.48 0.10 36 1007.4
20260903191552 22 249 17.7 53.1 0.00 0.48 0.10 35 1007.5
20260903190105 21 252 16.1 25.7 0.00 0.48 0.10 37 1007.5
20260903184559 22 213 19.3 30.6 0.00 0.48 0.10 37 1007.4
20260903183056 21 250 20.9 35.4 0.00 0.48 0.10 38 1007.4
20260903181551 21 260 19.3 32.2 0.00 0.48 0.10 39 1007.4
20260903180105 21 234 20.9 33.8 0.00 0.48 0.10 38 1007.5
20260903174558 21 234 20.9 37.0 0.00 0.48 0.10 40 1007.7
20260903173053 21 237 20.9 29.0 0.00 0.48 0.10 42 1007.5
20260903171612 20 250 11.3 20.9 0.00 0.48 0.10 45 1007.6
20260903170057 19 236 6.4 14.5 0.00 0.48 0.10 47 1007.7
20260903164623 18 238 3.2 14.5 0.00 0.48 0.10 50 1007.7
20260903163057 17 238 8.0 16.1 0.00 0.48 0.10 52 1007.8
20260903161600 16 192 8.0 16.1 0.00 0.48 0.10 57 1007.8
20260903160129 14 154 0.0 4.8 0.00 0.48 0.10 67 1007.9
20260903154611 13 155 3.2 8.0 0.00 0.48 0.10 72 1007.7
20260903153056 12 0 0.0 3.2 0.00 0.48 0.10 71 1007.9
20260903151616 11 0 0.0 8.0 0.00 0.48 0.10 75 1007.8
20260903150111 11 155 4.8 11.3 0.00 0.48 0.10 80 1007.9
20260903144610 11 0 0.0 0.0 0.00 0.48 0.10 79 1007.8
20260903143105 10 161 0.0 9.7 0.00 0.48 0.10 80 1007.6
20260903141613 10 161 6.4 9.7 0.00 0.48 0.10 81 1007.5
20260903140109 9 161 0.0 0.0 0.00 0.48 0.10 84 1007.3
20260903134600 9 161 4.8 9.7 0.00 0.48 0.10 82 1007.2
20260903133057 8 161 6.4 9.7 0.00 0.48 0.10 83 1007.1
20260903131602 8 161 8.0 9.7 0.00 0.48 0.10 84 1006.9
20260903130052 7 161 8.0 9.7 0.00 0.48 0.10 83 1006.7
20260903124605 7 161 4.8 9.7 0.00 0.48 0.10 83 1006.6
20260903123058 7 161 6.4 9.7 0.00 0.48 0.10 82 1006.4
20260903121553 8 0 0.0 9.7 0.03 0.48 0.10 80 1006.3
20260903120101 8 161 8.0 9.7 0.03 0.48 0.10 80 1006.3
20260903114603 8 0 0.0 0.0 0.03 0.48 0.10 77 1006.3
20260903113056 9 161 4.8 9.7 0.03 0.48 0.10 77 1006.8
20260903111552 9 161 1.6 9.7 0.00 0.46 0.08 77 1006.7
20260903110057 8 0 1.6 8.0 0.00 0.46 0.08 79 1006.7
20260903104558 9 0 0.0 8.0 0.00 0.46 0.08 77 1006.8
20260903103101 8 0 0.0 0.0 0.00 0.46 0.08 79 1006.6
20260903101606 8 161 4.8 16.1 0.00 0.46 0.08 80 1006.5
20260903100110 8 156 6.4 9.7 0.03 0.46 0.08 79 1006.1
20260903094607 8 156 6.4 9.7 0.03 0.46 0.08 80 1006.1
20260903093108 9 155 3.2 8.0 0.03 0.46 0.08 78 1006.3
20260903091556 9 0 0.0 3.2 0.03 0.46 0.08 79 1006.1
20260903084557 8 155 1.6 8.0 0.00 0.43 0.05 80 1006.2
20260903083107 8 0 0.0 0.0 0.00 0.43 0.05 82 1006.0
20260903081601 8 0 0.0 0.0 0.03 0.43 0.05 80 1006.1
20260903080105 9 155 4.8 12.9 0.03 0.43 0.05 80 1006.2
20260903074602 9 152 4.8 11.3 0.03 0.43 0.05 80 1006.3